Location: La B�doule
(43.2468°N, 5.5934°E)
Time: 22:19:26
(UTC+00:00)

Cosmos 2263 Rocket - Pass Details

Date: 07 June 2020
Orbit: 825 x 847 km, 71.0° (Epoch: 05 July)

Event Time Altitude Azimuth Distance (km) Brightness Sun altitude
Rises 02:48:12 0° 318° (NW) 3,381 5.4 -10.6°
Reaches altitude 10° 02:51:36 10° 297° (WNW) 2,438 4.4 -10.2°
Maximum altitude 02:54:48 16° 262° (W) 2,052 3.8 -9.8°
Enters shadow 02:57:22 12° 232° (SW) 2,299 3.8 -9.5°
